Location: Darmstadt
(49.8706°N, 8.6494°E)
Time: 07:30:11
(UTC+01:00)

Cosmos 1745 Rocket - Pass Details

Date: 31 October 2020
Orbit: 953 x 997 km, 83.0° (Epoch: 03 December)

Event Time Altitude Azimuth Distance (km) Brightness Sun altitude
Rises 18:11:37 0° 352° (N) 3,698 7.0 -11.4°
Reaches altitude 10° 18:14:11 10° 355° (N) 2,752 6.3 -11.8°
Maximum altitude 18:20:27 64° 77° (ENE) 1,094 4.0 -12.8°
Drops below altitude 10° 18:26:44 10° 159° (SSE) 2,756 6.2 -13.8°
Sets 18:29:17 0° 162° (SSE) 3,703 6.9 -14.2°
